Warning: Javascript must be enabled to use all the features on this page!

Page Loading - Please Wait...

Click to hideNews Bulletins

USGS 04189260 Blanchard River at Ottawa OH


Click to hidestation-specific text
Station operated in cooperation with the Village of Ottawa and the National Streamflow Information Program.
 04189260 Blanchard River at Ottawa, OH
 LOCATION.--Lat 41°01'01", long 84°02'49", Putnam County, OH, Hydrologic 
     Unit 04100008, on right bank at downstream side of Oak Street, 200 ft. upstream 
     of B&O railroad bridge, 800 ft. upstream of SR65 bridge, 1,200 ft. southeast of 
     intersection of SR65 and US RT224 in the village of Ottawa, OH.
 DRAINAGE AREA.--628 mi2.
 PERIOD OF RECORD.--October 2009 to current water year.

Boating safety tips
Available Parameters Available Period
All 2 Available Parameters for this site
00065 Gage height 2015-07-31  2015-11-28
00060 Discharge 2009-10-01  2015-11-28

Graph w/ stats
Graph w/o stats
Graph w/ (up to 3) parms
Days  (7)

  -- or --
Begin date

End date

Summary of all available data for this site
Instantaneous-data availability statement
Gage height, feet
TIMENov 21Nov 22Nov 23Nov 24Nov 25Nov 26Nov 27Nov 28
00:00 EST5.17P  5.17P  5.15P  5.32P  5.19P  5.11P  5.21P  5.35P  
00:30 EST5.17P  5.17P  5.15P  5.33P  5.19P  5.11P  5.21P  5.36P  
01:00 EST5.17P  5.17P  5.15P  5.33P  5.18P  5.11P  5.21P  5.37P  
01:30 EST5.17P  5.17P  5.15P  5.33P  5.18P  5.11P  5.21P  5.37P  
02:00 EST5.17P  5.17P  5.15P  5.33P  5.17P  5.11P  5.21P  5.38P  
02:30 EST5.17P  5.17P  5.15P  5.33P  5.17P  5.12P  5.20P  5.38P  
03:00 EST5.17P  5.17P  5.16P  5.34P  5.17P  5.13P  5.20P  5.39P  
03:30 EST5.17P  5.16P  5.16P  5.34P  5.16P  5.14P  5.20P  5.39P  
04:00 EST5.17P  5.16P  5.16P  5.34P  5.16P  5.15P  5.20P  5.40P  
04:30 EST5.17P  5.16P  5.17P  5.34P  5.16P  5.16P  5.20P  5.40P  
05:00 EST5.17P  5.16P  5.17P  5.35P  5.16P  5.17P  5.20P  5.41P  
05:30 EST5.17P  5.16P  5.17P  5.35P  5.16P  5.18P  5.20P  5.41P  
06:00 EST5.17P  5.16P  5.18P  5.35P  5.15P  5.20P  5.20P  5.41P  
06:30 EST5.17P  5.16P  5.18P  5.35P  5.15P  5.21P  5.19P  5.41P  
07:00 EST5.17P  5.16P  5.19P  5.36P  5.15P  5.21P  5.20P  5.42P  
07:30 EST5.17P  5.15P  5.19P  5.36P  5.15P  5.22P  5.20P  5.43P  
08:00 EST5.17P  5.16P  5.20P  5.36P  5.14P  5.23P  5.20P  5.43P  
08:30 EST5.17P  5.15P  5.20P  5.36P  5.14P  5.24P  5.20P  5.44P  
09:00 EST5.17P  5.15P  5.21P  5.36P  5.14P  5.24P  5.19P  5.44P  
09:30 EST5.17P  5.15P  5.21P  5.37P  5.14P  5.25P  5.19P  5.45P  
10:00 EST5.17P  5.15P  5.22P  5.36P  5.14P  5.25P  5.18P  5.45P  
10:30 EST5.17P  5.15P  5.22P  5.37P  5.14P  5.25P  5.17P  5.45P  
11:00 EST5.17P  5.14P  5.23P  5.37P  5.14P  5.25P  5.18P  5.45P  
11:30 EST5.17P  5.14P  5.23P  5.37P  5.13P  5.25P  5.18P  5.46P  
12:00 EST5.17P  5.14P  5.23P  5.37P  5.14P  5.25P  5.18P  5.46P  
12:30 EST5.17P  5.14P  5.24P  5.37P  5.13P  5.26P  5.18P  5.46P  
13:00 EST5.17P  5.14P  5.24P  5.37P  5.12P  5.26P  5.19P  5.46P  
13:30 EST5.17P  5.14P  5.25P  5.37P  5.13P  5.26P  5.19P  5.46P  
14:00 EST5.17P  5.14P  5.25P  5.36P  5.13P  5.25P  5.20P  5.46P  
14:30 EST5.17P  5.14P  5.26P  5.35P  5.13P  5.25P  5.20P  5.46P  
15:00 EST5.16P  5.14P  5.26P  5.34P  5.13P  5.26P  5.20P  5.46P  
15:30 EST5.17P  5.14P  5.26P  5.34P  5.12P  5.25P  5.21P  5.46P  
16:00 EST5.17P  5.13P  5.27P  5.32P  5.12P  5.25P  5.22P  5.46P  
16:30 EST5.17P  5.14P  5.27P  5.31P  5.12P  5.25P  5.24P  5.46P  
17:00 EST5.18P  5.13P  5.27P  5.30P  5.12P  5.24P  5.25P  5.46P  
17:30 EST5.18P  5.13P  5.28P  5.29P  5.11P  5.24P  5.27P  5.46P  
18:00 EST5.17P  5.14P  5.28P  5.28P  5.12P  5.24P  5.29P  5.46P  
18:30 EST5.17P  5.14P  5.29P  5.27P  5.11P  5.24P  5.30P  5.46P  
19:00 EST5.17P  5.14P  5.29P  5.26P  5.11P  5.23P  5.30P  5.46P  
19:30 EST5.17P  5.14P  5.29P  5.25P  5.11P  5.23P  5.31P  5.46P  
20:00 EST5.17P  5.14P  5.30P  5.24P  5.11P  5.23P  5.32P   
20:30 EST5.17P  5.14P  5.30P  5.23P  5.11P  5.23P  5.32P   
21:00 EST5.17P  5.14P  5.30P  5.22P  5.11P  5.23P  5.33P   
21:30 EST5.17P  5.14P  5.31P  5.22P  5.11P  5.22P  5.33P   
22:00 EST5.17P  5.14P  5.31P  5.21P  5.11P  5.22P  5.33P   
22:30 EST5.17P  5.14P  5.31P  5.20P  5.11P  5.22P  5.33P   
23:00 EST5.17P  5.14P  5.32P  5.20P  5.11P  5.22P  5.34P   
23:30 EST5.17P  5.14P  5.32P  5.19P  5.11P  5.21P  5.34P   

  P  Provisional data subject to revision.